Crookston, MN

10:51 PM CDT on June 22, 2017 (GMT -0500)
Crookston Municipal-Kirkwood

Weather History for KCKN - January, 2014

Change the Weather History Date:

Thursday, January 2, 2014

  Actual Average Record
Temperature  
Mean Temperature -18 °F -  
Max Temperature -7 °F 13 °F 33 °F (1997)
Min Temperature -29 °F 0 °F -29 °F (2014)
Degree Days  
Heating Degree Days 83    
Moisture  
Dew Point -25 °F    
Average Humidity 76    
Maximum Humidity 84    
Minimum Humidity 68    
Precipitation  
Precipitation 0.00 in - - ()
Sea Level Pressure  
Sea Level Pressure 30.41 in    
Wind  
Wind Speed 5 mph (South)    
Max Wind Speed 26 mph    
Max Gust Speed 29 mph    
Visibility 9 miles    
Events      
Averages and records for this station are not official NWS values.
T = Trace of Precipitation, MM = Missing Value Source: NWS Daily Summary

Daily Weather History Graph

Daily Weather History Graph

Search for Another Location

Airport or City:

Trip Planner

Search our weather history database for the weather conditions in past years. The results will help you decide how hot, cold, wet, or windy it might be!

Date:

Astronomy

Jan. 02, 2014 Rise Set
Actual Time 8:15 AM CST 4:45 PM CST
Civil Twilight 7:39 AM CST 5:21 PM CST
Nautical Twilight 7:00 AM CST 6:01 PM CST
Astronomical Twilight 6:22 AM CST 6:38 PM CST
Moon 8:49 AM CST (1/2) 6:54 PM CST (1/2)
Length of Visible Light 9h 42m
Length of Day
8h 30m
Waxing Crescent, 3% of the Moon is Illuminated
Jan 2
Waxing Crescent
Jan 7
First Quarter
Jan 15
Full
Jan 23
Last Quarter
Jan 30
New

Hourly Weather History & Observations

Time (CST) Temp. Windchill Dew Point Humidity Pressure Visibility Wind Dir Wind Speed Gust Speed Precip Events Conditions
12:15 AM -23.8 °F - -29.2 °F 76% 30.49 in 10.0 mi Calm Calm - N/A   Clear
12:34 AM -23.8 °F - -31.0 °F 69% 30.48 in 10.0 mi Calm Calm - N/A   Clear
12:54 AM -25.6 °F - -31.0 °F 76% 30.47 in 10.0 mi Calm Calm - N/A   Clear
1:15 AM -23.8 °F - -29.2 °F 76% 30.47 in 10.0 mi Calm Calm - N/A   Clear
1:34 AM -23.8 °F - -29.2 °F 76% 30.48 in 10.0 mi Calm Calm - N/A   Clear
1:54 AM -25.6 °F - -31.0 °F 76% 30.48 in 10.0 mi Calm Calm - N/A   Clear
2:15 AM -25.6 °F - -31.0 °F 76% 30.48 in 10.0 mi Calm Calm - N/A   Clear
2:34 AM -23.8 °F - -29.2 °F 76% 30.48 in 10.0 mi Calm Calm - N/A   Clear
2:54 AM -25.6 °F - -31.0 °F 76% 30.49 in 10.0 mi Calm Calm - N/A   Clear
3:15 AM -27.4 °F - -32.8 °F 75% 30.49 in 10.0 mi Calm Calm - N/A   Clear
3:34 AM -27.4 °F - -32.8 °F 75% - 10.0 mi Calm Calm - N/A   Clear
3:54 AM -25.6 °F - -32.8 °F 69% 30.48 in 10.0 mi Calm Calm - N/A   Clear
4:15 AM -25.6 °F - -31.0 °F 76% 30.49 in 10.0 mi Calm Calm - N/A   Clear
4:34 AM -29.2 °F - -36.4 °F 68% 30.49 in 10.0 mi Calm Calm - N/A   Clear
4:54 AM -29.2 °F - -36.4 °F 68% 30.50 in 10.0 mi Calm Calm - N/A   Clear
5:15 AM -29.2 °F -44.0 °F -36.4 °F 68% 30.49 in 10.0 mi SE 4.6 mph - N/A   Clear
5:34 AM -27.4 °F -44.1 °F -34.6 °F 69% 30.49 in 10.0 mi SSE 5.8 mph - N/A   Clear
5:54 AM -27.4 °F -39.2 °F -34.6 °F 69% 30.49 in 10.0 mi SSE 3.5 mph - N/A   Clear
6:15 AM -27.4 °F -39.2 °F -34.6 °F 69% 30.49 in 10.0 mi SSE 3.5 mph - N/A   Clear
6:34 AM -27.4 °F -44.1 °F -34.6 °F 69% 30.48 in 10.0 mi SSE 5.8 mph - N/A   Clear
6:55 AM -29.2 °F -46.2 °F -36.4 °F 68% 30.49 in 10.0 mi SSE 5.8 mph - N/A   Clear
7:15 AM -29.2 °F -46.2 °F -36.4 °F 68% 30.49 in 10.0 mi SSE 5.8 mph - N/A   Clear
7:34 AM -29.2 °F -41.2 °F -36.4 °F 68% 30.49 in 10.0 mi South 3.5 mph - N/A   Clear
7:55 AM -29.2 °F -41.2 °F -36.4 °F 68% 30.49 in 10.0 mi SSE 3.5 mph - N/A   Clear
8:15 AM -29.2 °F -44.0 °F -36.4 °F 68% 30.50 in 10.0 mi SSE 4.6 mph - N/A   Clear
8:34 AM -29.2 °F -41.2 °F -36.4 °F 68% 30.50 in 10.0 mi SSE 3.5 mph - N/A   Clear
8:55 AM -29.2 °F -46.2 °F -36.4 °F 68% 30.50 in 10.0 mi SSE 5.8 mph - N/A   Clear
9:15 AM -29.2 °F -48.1 °F -34.6 °F 75% 30.50 in 10.0 mi SE 6.9 mph - N/A   Clear
9:34 AM -27.4 °F -44.1 °F -34.6 °F 69% 30.50 in 10.0 mi SE 5.8 mph - N/A   Clear
9:55 AM -25.6 °F -41.9 °F -32.8 °F 69% 30.50 in 10.0 mi SSE 5.8 mph - N/A   Clear
10:14 AM -25.6 °F -39.8 °F -31.0 °F 76% 30.50 in 10.0 mi SSE 4.6 mph - N/A   Clear
10:34 AM -23.8 °F -37.7 °F -29.2 °F 76% 30.50 in 10.0 mi SSE 4.6 mph - N/A   Scattered Clouds
10:55 AM -22.0 °F -33.0 °F -27.4 °F 76% 30.51 in 10.0 mi South 3.5 mph - N/A   Mostly Cloudy
11:14 AM -20.2 °F -30.9 °F -25.6 °F 76% 30.50 in 10.0 mi SSW 3.5 mph - N/A   Scattered Clouds
11:34 AM -16.6 °F -32.9 °F -23.8 °F 70% 30.49 in 5.0 mi South 6.9 mph - N/A   Haze
11:55 AM -16.6 °F -32.9 °F -22.0 °F 76% 30.49 in 3.0 mi SSW 6.9 mph - N/A   Haze
12:14 PM -16.6 °F -34.4 °F -20.2 °F 84% 30.48 in 7.0 mi South 8.1 mph - N/A   Clear
12:35 PM -14.8 °F -32.2 °F -20.2 °F 77% 30.47 in 10.0 mi South 8.1 mph - N/A   Clear
12:55 PM -14.8 °F -30.8 °F -18.4 °F 84% 30.47 in 10.0 mi SSW 6.9 mph - N/A   Clear
1:14 PM -14.8 °F -33.5 °F -18.4 °F 84% 30.47 in 10.0 mi SSW 9.2 mph - N/A   Clear
1:35 PM -14.8 °F -32.2 °F -20.2 °F 77% 30.48 in 10.0 mi SW 8.1 mph - N/A   Clear
1:54 PM -14.8 °F -29.1 °F -20.2 °F 77% 30.47 in 10.0 mi SSW 5.8 mph - N/A   Clear
2:14 PM -14.8 °F -30.8 °F -18.4 °F 84% 30.46 in 10.0 mi SSW 6.9 mph - N/A   Clear
2:35 PM -13.0 °F -28.6 °F -18.4 °F 77% 30.45 in 10.0 mi South 6.9 mph - N/A   Clear
2:54 PM -13.0 °F -28.6 °F -18.4 °F 77% 30.44 in 7.0 mi South 6.9 mph - N/A   Clear
3:14 PM -14.8 °F -33.5 °F -18.4 °F 84% 30.43 in 10.0 mi SSE 9.2 mph - N/A   Clear
3:35 PM -14.8 °F -34.6 °F -20.2 °F 77% 30.42 in 10.0 mi SSE 10.4 mph - N/A   Clear
3:54 PM -14.8 °F -34.6 °F -18.4 °F 84% 30.41 in 10.0 mi SSE 10.4 mph - N/A   Clear
4:15 PM -14.8 °F -33.5 °F -18.4 °F 84% 30.41 in 10.0 mi South 9.2 mph - N/A   Clear
4:35 PM -14.8 °F -34.6 °F -18.4 °F 84% 30.40 in 10.0 mi South 10.4 mph - N/A   Clear
4:54 PM -14.8 °F -36.6 °F -18.4 °F 84% 30.38 in 10.0 mi South 12.7 mph - N/A   Clear
5:15 PM -14.8 °F -33.5 °F -20.2 °F 77% 30.38 in 10.0 mi South 9.2 mph - N/A   Clear
5:35 PM -14.8 °F -33.5 °F -20.2 °F 77% 30.38 in 10.0 mi South 9.2 mph - N/A   Clear
5:54 PM -14.8 °F -37.5 °F -18.4 °F 84% 30.37 in 10.0 mi South 13.8 mph - N/A   Clear
6:15 PM -13.0 °F -36.0 °F -18.4 °F 77% 30.35 in 10.0 mi South 15.0 mph - N/A   Clear
6:35 PM -13.0 °F -35.2 °F -18.4 °F 77% 30.33 in 10.0 mi South 13.8 mph - N/A   Clear
6:54 PM -14.8 °F -34.6 °F -18.4 °F 84% 30.32 in 10.0 mi South 10.4 mph - N/A   Clear
7:15 PM -13.0 °F -35.2 °F -18.4 °F 77% 30.32 in 10.0 mi South 13.8 mph - N/A   Clear
7:35 PM -13.0 °F -35.2 °F -18.4 °F 77% 30.31 in 10.0 mi South 13.8 mph - N/A   Clear
7:54 PM -13.0 °F -35.2 °F -18.4 °F 77% 30.30 in 10.0 mi South 13.8 mph - N/A   Clear
8:15 PM -13.0 °F -35.2 °F -16.6 °F 84% 30.28 in 10.0 mi South 13.8 mph - N/A   Clear
8:34 PM -11.2 °F -34.4 °F -16.6 °F 77% 30.27 in 7.0 mi South 16.1 mph - N/A   Clear
8:54 PM -11.2 °F -34.4 °F -16.6 °F 77% 30.26 in 7.0 mi South 16.1 mph - N/A   Clear
9:14 PM -11.2 °F -34.4 °F -16.6 °F 77% 30.24 in 5.0 mi South 16.1 mph - N/A   Haze
9:34 PM -11.2 °F -34.4 °F -16.6 °F 77% 30.23 in 5.0 mi South 16.1 mph 23.0 mph N/A   Haze
9:55 PM -9.4 °F -34.1 °F -14.8 °F 77% 30.22 in 3.0 mi South 19.6 mph - N/A   Haze
10:14 PM -9.4 °F -34.7 °F -14.8 °F 77% 30.21 in 2.5 mi South 20.7 mph - N/A   Haze
10:34 PM -9.4 °F -34.7 °F -14.8 °F 77% 30.18 in 2.5 mi South 20.7 mph - N/A   Haze
10:55 PM -9.4 °F -35.2 °F -14.8 °F 77% 30.17 in 2.0 mi South 21.9 mph - N/A   Clear
11:14 PM -7.6 °F -34.8 °F -13.0 °F 77% 30.15 in 1.5 mi South 26.5 mph - N/A   Haze
11:34 PM -7.6 °F -33.9 °F -11.2 °F 84% 30.13 in 1.8 mi South 24.2 mph 28.8 mph N/A   Mostly Cloudy
11:55 PM -7.6 °F -33.4 °F -11.2 °F 84% 30.11 in 2.5 mi South 23.0 mph - N/A   Mostly Cloudy